Starlink 33672

operational
NORAD ID: 63326 Int'l Des: 2025-057 Owner: SPXS Country: US Constellation: starlink
LEOCIRCULAR

关于 Starlink 33672

正在加载描述...

实时位置

正在加载3D地球...

即将过境

高度历史

Altitude vs Time

uPlot chart will show altitude changes over time

两行轨道根数

1 63326U 25057V 25259.45728225 .00030222 00000-0 11026-2 0 9998
2 63326 43.0003 294.5664 0001349 278.3443 81.7256 15.27601945 29130
Epoch: Sep 16, 2025 • Age: 10 hours

当前状态

高度 483.6 km
速度 7.62 km/s
星下点 -5.52°S, 163.87°E
发射日期 Mar 18, 2025
运行时间 0.4 years
类型 internet

技术详情

分类 Payload
质量 575.00 kg
干质量 530.00 kg
总质量 575.00 kg
长度 0.30 m
直径 4.10 m
跨度 29.00 m
形状 Box + pan
制造商 SPXS
平台类型 Starlink V2MO
阶段状态 In Orbit
所有者/国家 SPXS/US

大型星座

Loading constellations...